Waarnemingen

Advertentie
Mijn weer
Kirkwall, Groot Brittannië (3017): temperatuur & dauwpunt: 26.03.2020 19:00:00 - 01.04.2020 19:00:00 (BST)Kirkwall, Groot Brittannië (3017): temperatuur -20cm & temperatuur -100cm: 26.03.2020 19:00:00 - 01.04.2020 19:00:00 (BST)Kirkwall, Groot Brittannië (3017): windsnelheid & windstoten: 26.03.2020 19:00:00 - 01.04.2020 19:00:00 (BST)Kirkwall, Groot Brittannië (3017): windrichting: 26.03.2020 19:00:00 - 01.04.2020 19:00:00 (BST)Kirkwall, Groot Brittannië (3017): luchtdruk: 26.03.2020 19:00:00 - 01.04.2020 19:00:00 (BST)Kirkwall, Groot Brittannië (3017): zicht: 26.03.2020 19:00:00 - 01.04.2020 19:00:00 (BST)Kirkwall, Groot Brittannië (3017): Zonneschijnduur: 26.03.2020 19:00:00 - 01.04.2020 19:00:00 (BST)Kirkwall, Groot Brittannië (3017): neerslag: 26.03.2020 19:00:00 - 01.04.2020 19:00:00 (BST)
Datum & Tijd tt [°C] td [°C] tt -20cm [°C] tt -100cm [°C] ff [km/u] ff [kn] fx [km/u] fx [kn] dd ppp [hPa] vv [km] sd [min] rr [mm]
01.04.2020 19:00:00 - - - - - - - - - - - - -
01.04.2020 18:00:00 8,2 1,6 - - 35 19 59 32 W 1011,2 20 30 0,0
01.04.2020 17:00:00 8,0 1,4 - - 37 20 67 36 WNW 1011,5 20 30 0,0
01.04.2020 16:00:00 8,1 2,8 - - 34 18 54 29 WNW 1011,8 19 6 0,0
01.04.2020 15:00:00 8,6 3,8 - - 35 19 61 33 WNW 1012,1 20 54 0,0
01.04.2020 14:00:00 8,9 2,1 - - 42 23 61 33 WNW 1012,0 22 24 0,0
01.04.2020 13:00:00 8,6 5,1 - - 34 18 65 35 WNW 1011,9 16 6 0,0
01.04.2020 12:00:00 8,0 6,5 - - 42 23 63 34 W 1012,3 25 0 1,4
01.04.2020 11:00:00 7,3 6,2 - - 42 23 61 33 WZW 1013,0 2,7 0 0,4
01.04.2020 10:00:00 6,8 5,3 6,0 6,0 44 24 67 36 WZW 1013,6 6 0 0,2
01.04.2020 09:00:00 7,2 4,8 - - 46 25 68 37 W 1014,4 9 0 0,0
01.04.2020 08:00:00 7,3 4,4 - - 48 26 70 38 W 1015,1 15 0 0,0
01.04.2020 07:00:00 6,9 4,4 - - 41 22 57 31 W 1015,8 16 0 0,0
01.04.2020 06:00:00 6,6 4,5 - - 35 19 54 29 W 1017,1 16 0 0,0
01.04.2020 05:00:00 6,2 4,5 - - 31 17 50 27 W 1018,1 14 0 0,0
01.04.2020 04:00:00 6,1 4,2 - - 29 16 50 27 W 1019,1 20 0 0,0
01.04.2020 03:00:00 6,4 3,7 - - 31 17 - - W 1020,4 27 0 0,0
01.04.2020 02:00:00 6,3 3,9 - - 26 14 - - W 1021,5 24 0 0,0
01.04.2020 01:00:00 6,2 3,3 - - 22 12 - - W 1022,7 27 - 0,0
01.04.2020 00:00:00 5,9 3,3 - - 15 8 - - W 1023,8 29 0 0,0
31.03.2020 23:00:00 6,2 4,1 - - 26 14 - - W 1024,8 19 0 0,0
31.03.2020 22:00:00 5,7 3,5 - - 16 9 - - W 1025,8 16 0 0,0
31.03.2020 21:00:00 6,2 3,7 - - 24 13 - - W 1026,6 17 0 0,0
31.03.2020 20:00:00 6,6 3,8 - - 24 13 - - W 1027,0 15 30 0,0
31.03.2020 19:00:00 7,9 4,2 - - 28 15 48 26 WNW 1027,4 16 60 0,0
31.03.2020 18:00:00 8,7 4,1 - - 28 15 48 26 WNW 1027,8 19 54 0,0
31.03.2020 17:00:00 9,1 4,3 - - 34 18 48 26 W 1028,1 24 60 -
31.03.2020 16:00:00 8,8 3,1 - - 34 18 48 26 WNW 1028,5 30 36 0,0
31.03.2020 15:00:00 9,1 4,0 - - 31 17 48 26 WNW 1029,3 26 30 0,0
31.03.2020 14:00:00 7,9 4,4 - - 31 17 54 29 WNW 1029,8 30 24 0,0
31.03.2020 13:00:00 7,7 5,2 - - 28 15 52 28 WNW 1030,1 30 0 0,0
31.03.2020 12:00:00 8,1 3,8 - - 34 18 48 26 W 1030,6 35 30 0,0
31.03.2020 11:00:00 7,5 4,4 - - 34 18 52 28 W 1030,9 28 18 0,0
31.03.2020 10:00:00 7,2 4,1 6,0 6,0 29 16 - - W 1031,4 35 36 0,0
31.03.2020 09:00:00 6,5 4,3 - - 22 12 - - W 1031,9 28 36 0,0
31.03.2020 08:00:00 5,6 4,0 - - 26 14 - - W 1032,2 30 12 0,2
31.03.2020 07:00:00 5,5 4,3 - - 24 13 - - WNW 1032,5 11 0 0,2
31.03.2020 06:00:00 5,6 4,2 - - 16 9 - - W 1032,8 24 0 0,0
31.03.2020 05:00:00 5,4 4,2 - - 22 12 - - WNW 1033,1 6 0 0,2
31.03.2020 04:00:00 5,6 4,3 - - 16 9 - - W 1033,4 35 0 0,0
31.03.2020 03:00:00 5,5 4,5 - - 21 11 - - W 1033,8 27 0 0,0
31.03.2020 02:00:00 5,4 4,5 - - 18 10 - - W 1034,5 25 0 0,2
31.03.2020 01:00:00 5,3 4,4 - - 18 10 - - W 1035,0 4,4 - 0,2
31.03.2020 00:00:00 5,0 4,1 - - 15 8 - - W 1035,2 13 0 0,2
30.03.2020 23:00:00 3,4 2,3 - - 15 8 - - W 1035,8 28 0 0,0
30.03.2020 22:00:00 4,0 2,3 - - 13 7 - - W 1036,3 29 0 0,0
30.03.2020 21:00:00 5,2 3,8 - - 13 7 - - W 1036,4 19 0 0,0
30.03.2020 20:00:00 5,7 4,0 - - 16 9 - - W 1036,4 15 0 0,0
30.03.2020 19:00:00 6,8 4,5 - - 13 7 - - WNW 1036,4 23 12 0,0
30.03.2020 18:00:00 6,3 4,3 - - 18 10 - - NW 1036,7 9 0 0,2
30.03.2020 17:00:00 7,9 3,9 - - 18 10 - - NNW 1036,7 35 12 0,0
30.03.2020 16:00:00 8,4 4,5 - - 18 10 - - NNW 1037,0 24 12 0,0
30.03.2020 15:00:00 8,6 3,9 - - 22 12 - - NNW 1037,4 35 6 0,0
30.03.2020 14:00:00 8,9 3,8 - - 18 10 - - NNW 1037,6 35 6 0,0
30.03.2020 13:00:00 8,7 3,1 - - 24 13 - - NNW 1037,7 30 54 0,0
30.03.2020 12:00:00 9,3 3,7 - - 26 14 - - NNW 1037,9 23 60 0,0
30.03.2020 11:00:00 8,6 4,1 - - 24 13 - - NNW 1038,2 22 60 0,0
30.03.2020 10:00:00 8,2 4,4 5,7 6,0 21 11 - - NW 1038,4 21 54 0,0
30.03.2020 09:00:00 7,1 4,3 - - 21 11 - - NW 1038,5 19 48 0,0
30.03.2020 08:00:00 5,3 4,0 - - 16 9 - - WNW 1038,5 14 24 0,0
30.03.2020 07:00:00 4,6 3,1 - - 16 9 - - WNW 1038,7 14 0 0,0
30.03.2020 06:00:00 4,4 3,0 - - 15 8 - - WNW 1038,8 13 0 0,0
30.03.2020 05:00:00 4,3 2,9 - - 15 8 - - WNW 1038,9 12 0 0,0
30.03.2020 04:00:00 3,9 2,3 - - 13 7 - - WNW 1038,9 13 0 0,0
30.03.2020 03:00:00 5,5 3,6 - - 16 9 - - NW 1039,4 14 0 0,0
30.03.2020 02:00:00 5,9 3,9 - - 21 11 - - NW 1039,9 13 0 0,0
30.03.2020 01:00:00 6,0 4,0 - - 16 9 - - NW 1040,1 12 - 0,0
30.03.2020 00:00:00 6,5 4,1 - - 21 11 - - NW 1040,4 14 0 0,0
29.03.2020 23:00:00 7,0 4,3 - - 22 12 - - NW 1040,7 14 0 0,0
29.03.2020 22:00:00 6,9 4,2 - - 22 12 - - NW 1040,9 16 0 0,0
29.03.2020 21:00:00 6,4 4,1 - - 26 14 - - NW 1041,0 21 0 0,0
29.03.2020 20:00:00 6,3 4,3 - - 28 15 - - NW 1041,1 14 0 0,0
29.03.2020 19:00:00 6,4 4,2 - - 29 16 - - NW 1041,5 25 0 0,0
29.03.2020 18:00:00 6,7 4,2 - - 26 14 - - NW 1041,7 24 0 0,0
29.03.2020 17:00:00 6,4 3,8 - - 31 17 50 27 NW 1042,2 24 0 0,2
29.03.2020 16:00:00 7,1 3,9 - - 22 12 48 26 NW 1042,6 25 0 0,0
29.03.2020 15:00:00 7,5 3,0 - - 31 17 48 26 NW 1043,2 28 0 0,0
29.03.2020 14:00:00 7,1 3,3 - - 29 16 - - NW 1043,7 29 0 0,4
29.03.2020 13:00:00 6,5 3,3 - - 26 14 46 25 NW 1044,4 30 6 0,2
29.03.2020 12:00:00 5,5 3,0 - - 29 16 48 26 WNW 1044,6 35 0 0,2
29.03.2020 11:00:00 5,7 1,5 - - 29 16 52 28 W 1045,2 40 0 0,0
29.03.2020 10:00:00 5,4 -1,1 6,0 6,0 21 11 - - W 1046,0 50 0 0,0
29.03.2020 09:00:00 3,8 -2,0 - - 11 6 - - W 1046,5 55 0 0,0
29.03.2020 08:00:00 2,4 -3,0 - - 15 8 - - W 1046,8 45 0 0,0
29.03.2020 07:00:00 0,9 -3,9 - - 9 5 - - WZW 1047,0 45 0 0,0
29.03.2020 06:00:00 0,5 -5,2 - - 11 6 - - W 1047,1 45 0 0,0
29.03.2020 05:00:00 2,6 -5,3 - - 13 7 - - NNW 1047,6 50 0 0,0
29.03.2020 04:00:00 2,7 -5,7 - - 24 13 - - NNW 1048,0 55 0 0,0
29.03.2020 03:00:00 2,9 -6,2 - - 24 13 - - N 1048,2 50 0 0,0
29.03.2020 02:00:00 2,7 -5,9 - - 29 16 - - N 1048,4 45 0 0,0
29.03.2020 01:00:00 2,7 -4,8 - - 26 14 - - NNW 1048,1 40 - 0,0
29.03.2020 00:00:00 3,0 -5,1 - - 34 18 - - N 1047,8 40 0 0,0
28.03.2020 23:00:00 3,0 -5,3 - - 31 17 48 26 N 1047,5 45 0 0,0
28.03.2020 22:00:00 3,2 -4,8 - - 29 16 46 25 N 1047,0 40 0 0,0
28.03.2020 21:00:00 2,6 -7,5 - - 28 15 50 27 N 1047,0 50 0 0,0
28.03.2020 20:00:00 3,2 -5,5 - - 39 21 54 29 N 1046,3 40 0 0,0
28.03.2020 19:00:00 3,6 -5,2 - - 35 19 48 26 N 1045,5 40 18 0,0
28.03.2020 18:00:00 3,8 -5,1 - - 39 21 52 28 NNO 1045,0 40 0 0,0
28.03.2020 17:00:00 4,4 -2,7 - - 39 21 50 27 N 1044,5 30 18 0,0
28.03.2020 16:00:00 4,2 -4,6 - - 37 20 55 30 NNO 1044,2 30 30 0,0
28.03.2020 15:00:00 5,3 -4,3 - - 41 22 55 30 N 1044,0 30 54 0,0
28.03.2020 14:00:00 5,2 -4,8 - - 44 24 59 32 NNO 1043,5 45 30 0,0
28.03.2020 13:00:00 3,7 0,8 - - 44 24 68 37 NNO 1042,9 22 18 0,0
28.03.2020 12:00:00 4,4 -0,4 - - 35 19 57 31 N 1041,9 35 42 0,2
28.03.2020 11:00:00 4,8 -2,5 - - 39 21 50 27 N 1041,0 30 18 0,0
28.03.2020 10:00:00 4,8 -0,2 6,2 5,9 31 17 59 32 N 1040,2 30 42 0,0
28.03.2020 09:00:00 4,3 -2,1 - - 42 23 52 28 N 1039,2 35 6 0,0
28.03.2020 08:00:00 3,7 -0,5 - - 37 20 57 31 N 1038,3 35 0 0,2
28.03.2020 07:00:00 3,3 1,3 - - 39 21 52 28 N 1037,6 11 0 0,2
28.03.2020 06:00:00 4,3 1,2 - - 34 18 - - N 1036,9 27 0 0,0
28.03.2020 05:00:00 4,2 1,3 - - 31 17 50 27 NNW 1036,5 23 0 0,0
28.03.2020 04:00:00 5,0 1,6 - - 21 11 50 27 NNW 1036,2 30 0 0,0
28.03.2020 03:00:00 5,5 0,2 - - 15 8 - - NNW 1035,7 30 0 0,0
28.03.2020 02:00:00 5,8 0,1 - - 16 9 - - NW 1035,4 30 0 0,0
28.03.2020 01:00:00 5,6 2,7 - - 16 9 - - NNW 1035,1 21 - 0,0
28.03.2020 00:00:00 5,6 2,3 - - 13 7 - - NW 1034,8 28 0 0,0
27.03.2020 23:00:00 5,5 3,6 - - 11 6 - - NNW 1034,4 24 0 0,2
27.03.2020 22:00:00 6,0 4,5 - - 9 5 - - NW 1034,1 28 0 0,0
27.03.2020 21:00:00 6,2 4,2 - - 11 6 - - W 1033,5 30 0 0,0
27.03.2020 20:00:00 7,1 4,3 - - 15 8 - - WNW 1033,2 40 6 0,0
27.03.2020 19:00:00 8,0 3,4 - - 21 11 - - WNW 1032,4 35 60 0,0
27.03.2020 18:00:00 9,1 2,5 - - 18 10 - - WNW 1032,3 40 36 0,0
27.03.2020 17:00:00 9,7 3,2 - - 22 12 - - W 1032,3 45 42 0,0
27.03.2020 16:00:00 9,2 2,9 - - 21 11 - - W 1032,2 40 30 0,0
27.03.2020 15:00:00 9,7 2,3 - - 16 9 - - WNW 1031,9 50 30 0,0
27.03.2020 14:00:00 9,5 3,2 - - 16 9 - - WNW 1031,9 40 18 0,0
27.03.2020 13:00:00 9,7 3,3 - - 21 11 - - WNW 1031,7 45 24 0,0
27.03.2020 12:00:00 8,7 2,5 - - 18 10 - - WNW 1031,6 45 42 0,0
27.03.2020 11:00:00 8,9 4,3 - - 16 9 - - W 1031,1 40 54 0,0
27.03.2020 10:00:00 8,2 4,1 6,0 5,7 15 8 - - W 1030,7 45 54 0,0
27.03.2020 09:00:00 6,2 4,1 - - 13 7 - - WZW 1030,4 30 12 0,0
27.03.2020 08:00:00 4,7 3,5 - - 13 7 - - ZW 1029,8 30 36 0,0
27.03.2020 07:00:00 2,7 1,1 - - 16 9 - - ZW 1029,3 30 0 0,0
27.03.2020 06:00:00 3,1 1,3 - - 13 7 - - WZW 1029,1 35 0 0,0
27.03.2020 05:00:00 3,7 1,3 - - 13 7 - - WZW 1029,0 35 0 0,0
27.03.2020 04:00:00 5,2 2,9 - - 13 7 - - ZW 1029,0 40 0 0,0
27.03.2020 03:00:00 4,7 3,2 - - 13 7 - - ZW 1029,1 30 0 0,0
27.03.2020 02:00:00 4,4 2,9 - - 13 7 - - ZW 1029,0 35 0 0,0
27.03.2020 01:00:00 4,4 2,3 - - 16 9 - - ZW 1028,9 35 - 0,0
27.03.2020 00:00:00 4,7 2,0 - - 15 8 - - ZW 1028,8 35 0 0,0
26.03.2020 23:00:00 5,1 2,6 - - 13 7 - - ZW 1028,8 35 0 0,0
26.03.2020 22:00:00 5,8 2,8 - - 13 7 - - ZW 1028,8 35 0 0,0
26.03.2020 21:00:00 5,9 3,6 - - 15 8 - - Z 1028,8 40 0 0,0
26.03.2020 20:00:00 6,5 3,3 - - 11 6 - - ZZW 1028,5 30 0 0,0
26.03.2020 19:00:00 - - - - - - - - - - - - -

tt = temperatuur
td = dauwpunt
tt -20cm = temperatuur -20cm
tt -100cm = temperatuur -100cm
ff = windsnelheid
fx = windstoten
dd = windrichting
ppp = luchtdruk
vv = zicht
sd = Zonneschijnduur
rr = neerslag

Weerstations in de omgeving